Location: Newark
(41.0400°S, 62.7845°W)
Time: 01:53:22
(UTC+00:00)

Transit 2A - Pass Details

Date: 08 December 2021
Orbit: 591 x 967 km, 66.7° (Epoch: 20 January)

Event Time Altitude Azimuth Distance (km) Brightness Sun altitude
Rises 22:43:03 0° 197° (SSW) 2,867 9.6 7.7°
Reaches altitude 10° 22:45:54 10° 178° (S) 1,964 8.5 7.3°
Maximum altitude 22:49:00 19° 133° (SE) 1,498 7.4 6.7°
Drops below altitude 10° 22:52:10 10° 88° (E) 2,012 7.6 6.2°
Sets 22:55:06 0° 69° (ENE) 2,963 8.4 5.7°
